• en Suisse
  • Liste des pays
  • À 7 jours
  • Température de l'eau
  • Carte satellitaire
  • Carte météo
  • Widgets météo
  • user-avatar
    Se connecter

    Météo par heure à Pyatakovo

    Ce jour, 24 Mai, Jeudi

    Heure Température Précipitation Vent Pression Humidité
    00:00 +16°C° 0,5 mm 0 m/s 754 mmHg 92%
    01:00 +18°C° 0,6 mm 1 m/s 754 mmHg 93%
    02:00 +18°C° 0,6 mm 1 m/s 753 mmHg 94%
    03:00 +18°C° 0 mm 1 m/s 753 mmHg 95%
    04:00 +18°C° 1 mm 1 m/s 753 mmHg 95%
    05:00 +18°C° 1 mm 1 m/s 753 mmHg 95%
    06:00 +17°C° 1 mm 2 m/s 752 mmHg 95%
    07:00 +18°C° 0,9 mm 2 m/s 752 mmHg 94%
    08:00 +18°C° 0,9 mm 2 m/s 752 mmHg 93%
    09:00 +19°C° 0 mm 2 m/s 752 mmHg 91%
    10:00 +19°C° 0,7 mm 3 m/s 752 mmHg 89%
    11:00 +20°C° 0,7 mm 3 m/s 752 mmHg 87%
    12:00 +20°C° 0,7 mm 4 m/s 752 mmHg 85%
    13:00 +20°C° 0,3 mm 4 m/s 752 mmHg 84%
    14:00 +20°C° 0,3 mm 4 m/s 751 mmHg 83%
    15:00 +21°C° 0,3 mm 4 m/s 751 mmHg 82%
    16:00 +20°C° 0,1 mm 4 m/s 751 mmHg 82%
    17:00 +20°C° 0,1 mm 4 m/s 751 mmHg 82%
    18:00 +20°C° 0,1 mm 4 m/s 750 mmHg 82%
    19:00 +19°C° 0,3 mm 4 m/s 750 mmHg 85%
    20:00 +18°C° 0,3 mm 4 m/s 750 mmHg 88%
    21:00 +17°C° 0,3 mm 4 m/s 750 mmHg 91%
    22:00 +17°C° 0 mm 4 m/s 750 mmHg 90%
    23:00 +15°C° 0 mm 4 m/s 750 mmHg 89%

    Demain, 25 Mai, Vendredi

    Heure Température Précipitation Vent Pression Humidité
    00:00 +15°C° 0 mm 4 m/s 750 mmHg 88%
    01:00 +15°C° 0 mm 4 m/s 750 mmHg 88%
    02:00 +14°C° 0 mm 4 m/s 750 mmHg 88%
    03:00 +14°C° 0 mm 4 m/s 751 mmHg 87%
    04:00 +13°C° 0 mm 5 m/s 751 mmHg 87%
    05:00 +13°C° 0 mm 6 m/s 751 mmHg 87%
    06:00 +13°C° 0 mm 6 m/s 752 mmHg 87%
    07:00 +14°C° 0 mm 7 m/s 752 mmHg 81%
    08:00 +15°C° 0 mm 7 m/s 753 mmHg 74%
    09:00 +16°C° 0 mm 7 m/s 753 mmHg 67%
    10:00 +16°C° 0 mm 7 m/s 754 mmHg 62%
    11:00 +17°C° 0 mm 7 m/s 754 mmHg 56%
    12:00 +17°C° 0 mm 7 m/s 754 mmHg 51%
    13:00 +17°C° 0 mm 7 m/s 755 mmHg 50%
    14:00 +17°C° 0 mm 7 m/s 755 mmHg 49%
    15:00 +17°C° 0 mm 7 m/s 755 mmHg 48%
    16:00 +16°C° 0 mm 6 m/s 755 mmHg 50%
    17:00 +16°C° 0 mm 6 m/s 756 mmHg 53%
    18:00 +15°C° 0 mm 5 m/s 756 mmHg 56%
    19:00 +13°C° 0 mm 4 m/s 757 mmHg 58%
    20:00 +12°C° 0 mm 4 m/s 757 mmHg 61%
    21:00 +10°C° 0 mm 3 m/s 758 mmHg 63%
    22:00 +10°C° 0 mm 3 m/s 758 mmHg 65%
    23:00 +9°C° 0 mm 3 m/s 759 mmHg 66%

    Après-demain, 26 Mai, Samedi

    Heure Température Précipitation Vent Pression Humidité
    00:00 +8°C° 0 mm 3 m/s 760 mmHg 67%
    01:00 +7°C° 0 mm 3 m/s 760 mmHg 68%
    02:00 +7°C° 0 mm 3 m/s 760 mmHg 69%
    03:00 +5°C° 0 mm 3 m/s 761 mmHg 70%
    04:00 +5°C° 0 mm 3 m/s 761 mmHg 68%
    05:00 +7°C° 0 mm 3 m/s 762 mmHg 66%
    06:00 +8°C° 0 mm 3 m/s 762 mmHg 64%
    07:00 +9°C° 0 mm 3 m/s 763 mmHg 58%
    08:00 +11°C° 0 mm 4 m/s 763 mmHg 52%
    09:00 +13°C° 0 mm 4 m/s 763 mmHg 47%
    10:00 +14°C° 0 mm 4 m/s 763 mmHg 45%
    11:00 +15°C° 0 mm 4 m/s 763 mmHg 43%
    12:00 +17°C° 0 mm 4 m/s 764 mmHg 41%
    13:00 +17°C° 0 mm 3 m/s 763 mmHg 41%
    14:00 +18°C° 0 mm 3 m/s 763 mmHg 40%
    15:00 +18°C° 0 mm 3 m/s 763 mmHg 39%
    16:00 +18°C° 0 mm 2 m/s 763 mmHg 43%
    17:00 +18°C° 0 mm 2 m/s 763 mmHg 46%
    18:00 +19°C° 0 mm 1 m/s 762 mmHg 49%
    19:00 +16°C° 0 mm 1 m/s 763 mmHg 53%
    20:00 +14°C° 0 mm 1 m/s 763 mmHg 56%
    21:00 +12°C° 0 mm 1 m/s 763 mmHg 60%
    22:00 +11°C° 0 mm 1 m/s 763 mmHg 62%
    23:00 +9°C° 0 mm 2 m/s 763 mmHg 63%

    27 Mai, Dimanche

    Heure Température Précipitation Vent Pression Humidité
    00:00 +9°C° 0 mm 2 m/s 763 mmHg 65%
    01:00 +8°C° 0 mm 2 m/s 763 mmHg 67%
    02:00 +8°C° 0 mm 2 m/s 763 mmHg 69%
    03:00 +8°C° 0 mm 2 m/s 763 mmHg 72%
    04:00 +8°C° 0 mm 2 m/s 763 mmHg 72%
    05:00 +9°C° 0 mm 2 m/s 763 mmHg 71%
    06:00 +10°C° 0 mm 2 m/s 763 mmHg 71%
    07:00 +12°C° 0 mm 3 m/s 763 mmHg 66%
    08:00 +14°C° 0 mm 3 m/s 763 mmHg 61%
    09:00 +17°C° 0 mm 3 m/s 762 mmHg 56%
    10:00 +17°C° 0 mm 4 m/s 762 mmHg 54%
    11:00 +18°C° 0 mm 4 m/s 762 mmHg 52%
    12:00 +19°C° 0 mm 4 m/s 761 mmHg 49%
    13:00 +20°C° 0 mm 4 m/s 761 mmHg 50%
    14:00 +20°C° 0 mm 4 m/s 760 mmHg 50%
    15:00 +20°C° 0 mm 5 m/s 759 mmHg 51%
    16:00 +20°C° 0 mm 4 m/s 759 mmHg 54%
    17:00 +19°C° 0 mm 4 m/s 758 mmHg 58%
    18:00 +19°C° 0 mm 4 m/s 758 mmHg 62%
    19:00 +17°C° 0 mm 4 m/s 758 mmHg 67%
    20:00 +14°C° 0 mm 3 m/s 757 mmHg 72%
    21:00 +13°C° 0 mm 3 m/s 757 mmHg 77%
    22:00 +12°C° 0 mm 3 m/s 757 mmHg 78%
    23:00 +12°C° 0 mm 3 m/s 757 mmHg 78%

    28 Mai, Lundi

    Heure Température Précipitation Vent Pression Humidité
    00:00 +12°C° 0 mm 4 m/s 756 mmHg 78%
    01:00 +12°C° 0 mm 3 m/s 756 mmHg 78%
    02:00 +12°C° 0 mm 3 m/s 756 mmHg 78%
    03:00 +12°C° 0 mm 3 m/s 756 mmHg 77%
    04:00 +12°C° 0 mm 3 m/s 756 mmHg 79%
    05:00 +12°C° 0 mm 3 m/s 756 mmHg 80%
    06:00 +13°C° 0 mm 3 m/s 757 mmHg 82%
    07:00 +14°C° 0 mm 3 m/s 757 mmHg 76%
    08:00 +17°C° 0 mm 4 m/s 757 mmHg 70%
    09:00 +18°C° 0 mm 4 m/s 757 mmHg 63%
    10:00 +19°C° 0 mm 5 m/s 758 mmHg 57%
    11:00 +19°C° 0 mm 5 m/s 758 mmHg 51%
    12:00 +19°C° 0 mm 6 m/s 758 mmHg 45%
    13:00 +19°C° 0 mm 6 m/s 758 mmHg 43%
    14:00 +19°C° 0 mm 6 m/s 758 mmHg 42%
    15:00 +17°C° 0 mm 6 m/s 759 mmHg 40%
    16:00 +17°C° 0 mm 5 m/s 759 mmHg 44%
    17:00 +17°C° 0 mm 4 m/s 759 mmHg 47%
    18:00 +15°C° 0 mm 4 m/s 759 mmHg 51%
    19:00 +14°C° 0 mm 3 m/s 760 mmHg 55%
    20:00 +12°C° 0 mm 3 m/s 760 mmHg 59%
    21:00 +10°C° 0 mm 2 m/s 760 mmHg 63%
    22:00 +9°C° 0 mm 2 m/s 761 mmHg 64%
    23:00 +8°C° 0 mm 2 m/s 761 mmHg 65%

    29 Mai, Mardi

    Heure Température Précipitation Vent Pression Humidité
    00:00 +8°C° 0 mm 2 m/s 761 mmHg 66%
    01:00 +7°C° 0 mm 2 m/s 761 mmHg 67%
    02:00 +7°C° 0 mm 2 m/s 761 mmHg 68%
    03:00 +7°C° 0 mm 2 m/s 762 mmHg 69%
    04:00 +8°C° 0 mm 2 m/s 762 mmHg 69%
    05:00 +9°C° 0 mm 2 m/s 762 mmHg 69%
    06:00 +10°C° 0 mm 3 m/s 762 mmHg 68%
    07:00 +12°C° 0 mm 3 m/s 762 mmHg 62%
    08:00 +14°C° 0 mm 4 m/s 762 mmHg 57%
    09:00 +17°C° 0 mm 4 m/s 762 mmHg 51%
    10:00 +17°C° 0 mm 5 m/s 761 mmHg 49%
    11:00 +20°C° 0 mm 5 m/s 761 mmHg 47%
    12:00 +21°C° 0 mm 5 m/s 761 mmHg 45%
    13:00 +22°C° 0 mm 5 m/s 760 mmHg 45%
    14:00 +22°C° 0 mm 5 m/s 760 mmHg 45%
    15:00 +23°C° 0 mm 5 m/s 759 mmHg 45%
    16:00 +23°C° 0 mm 5 m/s 759 mmHg 49%
    17:00 +22°C° 0 mm 4 m/s 758 mmHg 53%
    18:00 +22°C° 0 mm 4 m/s 758 mmHg 57%
    19:00 +20°C° 0 mm 3 m/s 758 mmHg 63%
    20:00 +18°C° 0 mm 3 m/s 758 mmHg 69%
    21:00 +16°C° 0 mm 3 m/s 758 mmHg 75%
    22:00 +14°C° 0 mm 3 m/s 757 mmHg 77%
    23:00 +14°C° 0 mm 3 m/s 757 mmHg 78%
    Voir plus